Satellite-Ground Cal/Val Region Overpasses Predictions

Prediction of Satellite NPP Overpassing Cal/Val Region: PacNW

Region Location: (Latitude: 10.00, Longitude: 139.50) to (Latitude: 22.70, Longitude: 165.60).

Table of predicted overpasses for the next 14.0 days since TLE Epoch: 9/7/2018
Interval Starting Time Starting Location Ending Time Ending Location
1 09/07/2018 14:39:49 ( 22.67, 165.09) 09/07/2018 14:43:24 ( 10.05, 162.08)
2 09/07/2018 16:21:19 ( 22.67, 139.71) 09/07/2018 16:21:33 ( 21.85, 139.51)
3 09/08/2018 03:30:24 ( 10.01, 147.23) 09/08/2018 03:34:00 ( 22.69, 144.21)
4 09/08/2018 16:02:17 ( 22.68, 144.47) 09/08/2018 16:05:52 ( 10.06, 141.46)
5 09/09/2018 03:11:23 ( 10.06, 151.98) 09/09/2018 03:14:58 ( 22.68, 148.97)
6 09/09/2018 15:43:16 ( 22.68, 149.23) 09/09/2018 15:46:52 ( 10.01, 146.21)
7 09/10/2018 02:52:22 ( 10.05, 156.74) 09/10/2018 02:55:57 ( 22.67, 153.73)
8 09/10/2018 15:24:15 ( 22.69, 153.99) 09/10/2018 15:27:51 ( 10.01, 150.97)
9 09/11/2018 02:33:20 ( 10.04, 161.50) 09/11/2018 02:36:55 ( 22.67, 158.49)
10 09/11/2018 15:05:13 ( 22.70, 158.75) 09/11/2018 15:08:49 ( 10.02, 155.73)
11 09/12/2018 02:15:08 ( 12.92, 165.59) 09/12/2018 02:17:54 ( 22.66, 163.25)
12 09/12/2018 03:55:49 ( 10.04, 140.88) 09/12/2018 03:57:29 ( 15.92, 139.51)
13 09/12/2018 14:46:13 ( 22.65, 163.49) 09/12/2018 14:49:48 ( 10.03, 160.48)
14 09/13/2018 03:36:47 ( 10.03, 145.64) 09/13/2018 03:40:22 ( 22.66, 142.63)
15 09/13/2018 14:30:20 ( 11.56, 165.59) 09/13/2018 14:30:46 ( 10.04, 165.24)
16 09/13/2018 16:08:41 ( 22.65, 142.87) 09/13/2018 16:12:16 ( 10.03, 139.87)
17 09/14/2018 03:17:46 ( 10.03, 150.39) 09/14/2018 03:21:21 ( 22.65, 147.39)
18 09/14/2018 15:49:40 ( 22.66, 147.63) 09/14/2018 15:53:15 ( 10.04, 144.63)
19 09/15/2018 02:58:44 ( 10.02, 155.15) 09/15/2018 03:02:19 ( 22.64, 152.15)
20 09/15/2018 15:30:38 ( 22.66, 152.39) 09/15/2018 15:34:13 ( 10.04, 149.38)
21 09/16/2018 02:39:43 ( 10.02, 159.91) 09/16/2018 02:43:19 ( 22.70, 156.89)
22 09/16/2018 15:11:37 ( 22.67, 157.15) 09/16/2018 15:15:12 ( 10.05, 154.14)
23 09/17/2018 02:20:42 ( 10.01, 164.67) 09/17/2018 02:24:17 ( 22.69, 161.65)
24 09/17/2018 14:52:35 ( 22.67, 161.91) 09/17/2018 14:56:10 ( 10.06, 158.90)
25 09/18/2018 03:43:10 ( 10.01, 144.05) 09/18/2018 03:46:46 ( 22.69, 141.03)
26 09/18/2018 14:34:48 ( 18.34, 165.60) 09/18/2018 14:37:10 ( 10.00, 163.65)
27 09/18/2018 16:15:04 ( 22.68, 141.29) 09/18/2018 16:17:09 ( 15.34, 139.51)
28 09/19/2018 03:24:09 ( 10.01, 148.81) 09/19/2018 03:27:45 ( 22.69, 145.79)
29 09/19/2018 15:56:02 ( 22.68, 146.05) 09/19/2018 15:59:38 ( 10.00, 143.03)
30 09/20/2018 03:05:07 ( 10.00, 153.57) 09/20/2018 03:08:43 ( 22.68, 150.55)
31 09/20/2018 15:37:01 ( 22.69, 150.81) 09/20/2018 15:40:37 ( 10.01, 147.79)


NCC Satellite Cal/Val Overpasses Prediction Service
